When you browse on this site, cookies collect data to enhance your experience and personalize the content and advertising you see.
Visit our Privacy Policy to learn more. By continuing to use the site, you agree to this use of cookies and data.
  • En España
  • Lista de países
  • Para 7 días
  • Temperatura del agua
  • El tiempo en el mapa
  • Informadores
  • user-avatar
    Iniciar sesión

    Tiempo cada hora Aktobe

    Hoy, 17 Noviembre, Domingo

    Tiempo Temperatura Precipitaciones Viento Presión Humedad
    00:00 -2°C° 0 mm 3 mps 758 mmHg 87%
    01:00 -2°C° 0 mm 3 mps 757 mmHg 87%
    02:00 -2°C° 0 mm 3 mps 757 mmHg 86%
    03:00 -2°C° 0 mm 3 mps 758 mmHg 86%
    04:00 -2°C° 0 mm 3 mps 757 mmHg 87%
    05:00 -2°C° 0 mm 3 mps 757 mmHg 86%
    06:00 -4°C° 0 mm 3 mps 757 mmHg 84%
    07:00 -4°C° 0 mm 3 mps 757 mmHg 83%
    08:00 -2°C° 0 mm 3 mps 757 mmHg 76%
    09:00 -1°C° 0 mm 3 mps 757 mmHg 69%
    10:00 0°C° 0 mm 3 mps 757 mmHg 62%
    11:00 0°C° 0 mm 4 mps 756 mmHg 56%
    12:00 +1°C° 0 mm 4 mps 756 mmHg 51%
    13:00 +3°C° 0 mm 4 mps 755 mmHg 45%
    14:00 +1°C° 0 mm 4 mps 755 mmHg 48%
    15:00 +1°C° 0 mm 3 mps 755 mmHg 51%
    16:00 0°C° 0 mm 3 mps 755 mmHg 53%
    17:00 0°C° 0 mm 3 mps 754 mmHg 55%
    18:00 -1°C° 0 mm 3 mps 754 mmHg 58%
    19:00 -2°C° 0 mm 4 mps 754 mmHg 60%
    20:00 -3°C° 0 mm 4 mps 754 mmHg 64%
    21:00 -3°C° 0 mm 4 mps 754 mmHg 68%
    22:00 -4°C° 0 mm 5 mps 753 mmHg 72%
    23:00 -3°C° 0 mm 4 mps 753 mmHg 78%

    Mañana, 18 Noviembre, Lunes

    Tiempo Temperatura Precipitaciones Viento Presión Humedad
    00:00 -4°C° 0 mm 4 mps 753 mmHg 83%
    01:00 -4°C° 0 mm 3 mps 752 mmHg 88%
    02:00 -4°C° 0 mm 3 mps 752 mmHg 90%
    03:00 -4°C° 0 mm 3 mps 752 mmHg 92%
    04:00 -4°C° 0 mm 4 mps 752 mmHg 94%
    05:00 -4°C° 0 mm 3 mps 752 mmHg 93%
    06:00 -4°C° 0 mm 3 mps 752 mmHg 93%
    07:00 -2°C° 0 mm 3 mps 752 mmHg 92%
    08:00 -2°C° 0 mm 3 mps 752 mmHg 90%
    09:00 -1°C° 0 mm 3 mps 752 mmHg 88%
    10:00 -1°C° 0 mm 3 mps 752 mmHg 86%
    11:00 0°C° 0 mm 3 mps 752 mmHg 84%
    12:00 0°C° 0 mm 3 mps 751 mmHg 82%
    13:00 +1°C° 0 mm 3 mps 751 mmHg 80%
    14:00 +1°C° 0 mm 3 mps 751 mmHg 82%
    15:00 0°C° 0 mm 3 mps 751 mmHg 85%
    16:00 0°C° 0 mm 3 mps 750 mmHg 88%
    17:00 -1°C° 0 mm 3 mps 750 mmHg 90%
    18:00 -1°C° 0 mm 3 mps 750 mmHg 92%
    19:00 -1°C° 0 mm 3 mps 749 mmHg 94%
    20:00 -1°C° 0.1 mm 3 mps 749 mmHg 94%
    21:00 -1°C° 0.1 mm 3 mps 749 mmHg 94%
    22:00 -1°C° 0.1 mm 3 mps 748 mmHg 93%
    23:00 -2°C° 0.1 mm 4 mps 748 mmHg 94%

    Pasado mañana, 19 Noviembre, Martes

    Tiempo Temperatura Precipitaciones Viento Presión Humedad
    00:00 -2°C° 0.1 mm 4 mps 747 mmHg 94%
    01:00 -2°C° 0.1 mm 4 mps 747 mmHg 94%
    02:00 -2°C° 0.2 mm 4 mps 746 mmHg 94%
    03:00 -3°C° 0.2 mm 4 mps 746 mmHg 95%
    04:00 -3°C° 0.2 mm 4 mps 746 mmHg 95%
    05:00 -3°C° 0.3 mm 4 mps 746 mmHg 96%
    06:00 -3°C° 0.3 mm 4 mps 745 mmHg 96%
    07:00 -3°C° 0.3 mm 4 mps 745 mmHg 96%
    08:00 -2°C° 0 mm 4 mps 746 mmHg 94%
    09:00 -2°C° 0 mm 4 mps 746 mmHg 93%
    10:00 -1°C° 0 mm 4 mps 746 mmHg 91%
    11:00 -2°C° 0 mm 5 mps 747 mmHg 87%
    12:00 -4°C° 0 mm 7 mps 747 mmHg 82%
    13:00 -6°C° 0 mm 8 mps 747 mmHg 78%
    14:00 -7°C° 0 mm 8 mps 748 mmHg 79%
    15:00 -10°C° 0 mm 8 mps 748 mmHg 80%
    16:00 -11°C° 0 mm 8 mps 749 mmHg 81%
    17:00 -12°C° 0 mm 8 mps 749 mmHg 81%
    18:00 -13°C° 0 mm 8 mps 750 mmHg 81%
    19:00 -15°C° 0 mm 8 mps 750 mmHg 80%
    20:00 -16°C° 0 mm 8 mps 751 mmHg 76%
    21:00 -17°C° 0 mm 8 mps 751 mmHg 71%
    22:00 -17°C° 0 mm 8 mps 752 mmHg 66%
    23:00 -18°C° 0 mm 8 mps 752 mmHg 66%

    20 Noviembre, Miércoles

    Tiempo Temperatura Precipitaciones Viento Presión Humedad
    00:00 -19°C° 0 mm 8 mps 753 mmHg 66%
    01:00 -19°C° 0 mm 8 mps 753 mmHg 66%
    02:00 -21°C° 0 mm 8 mps 754 mmHg 67%
    03:00 -21°C° 0 mm 8 mps 754 mmHg 68%
    04:00 -21°C° 0 mm 7 mps 754 mmHg 70%
    05:00 -21°C° 0 mm 7 mps 755 mmHg 70%
    06:00 -23°C° 0 mm 7 mps 755 mmHg 71%
    07:00 -23°C° 0 mm 7 mps 755 mmHg 71%
    08:00 -23°C° 0 mm 7 mps 756 mmHg 70%
    09:00 -23°C° 0 mm 7 mps 756 mmHg 69%
    10:00 -21°C° 0 mm 7 mps 757 mmHg 68%
    11:00 -21°C° 0 mm 7 mps 757 mmHg 66%
    12:00 -20°C° 0 mm 7 mps 757 mmHg 65%
    13:00 -20°C° 0 mm 6 mps 758 mmHg 63%
    14:00 -20°C° 0 mm 6 mps 758 mmHg 66%
    15:00 -20°C° 0 mm 6 mps 758 mmHg 68%
    16:00 -20°C° 0 mm 6 mps 759 mmHg 71%
    17:00 -20°C° 0 mm 6 mps 759 mmHg 72%
    18:00 -21°C° 0 mm 6 mps 759 mmHg 74%
    19:00 -21°C° 0 mm 6 mps 760 mmHg 76%
    20:00 -20°C° 0 mm 5 mps 760 mmHg 77%
    21:00 -20°C° 0 mm 5 mps 760 mmHg 77%
    22:00 -19°C° 0 mm 4 mps 761 mmHg 78%
    23:00 -19°C° 0 mm 4 mps 761 mmHg 77%

    21 Noviembre, Jueves

    Tiempo Temperatura Precipitaciones Viento Presión Humedad
    00:00 -19°C° 0 mm 4 mps 761 mmHg 77%
    01:00 -19°C° 0 mm 4 mps 761 mmHg 76%
    02:00 -19°C° 0 mm 4 mps 761 mmHg 76%
    03:00 -18°C° 0 mm 3 mps 761 mmHg 75%
    04:00 -18°C° 0 mm 3 mps 761 mmHg 74%
    05:00 -18°C° 0 mm 3 mps 761 mmHg 74%
    06:00 -18°C° 0 mm 3 mps 761 mmHg 73%
    07:00 -17°C° 0 mm 2 mps 761 mmHg 73%
    08:00 -17°C° 0 mm 2 mps 761 mmHg 69%
    09:00 -16°C° 0 mm 2 mps 761 mmHg 66%
    10:00 -15°C° 0 mm 2 mps 761 mmHg 62%
    11:00 -14°C° 0 mm 2 mps 761 mmHg 59%
    12:00 -13°C° 0 mm 2 mps 761 mmHg 56%
    13:00 -12°C° 0 mm 2 mps 760 mmHg 53%
    14:00 -12°C° 0 mm 2 mps 760 mmHg 57%
    15:00 -12°C° 0 mm 2 mps 760 mmHg 61%
    16:00 -12°C° 0 mm 2 mps 759 mmHg 65%
    17:00 -14°C° 0 mm 3 mps 759 mmHg 71%
    18:00 -14°C° 0 mm 3 mps 759 mmHg 77%
    19:00 -14°C° 0 mm 3 mps 759 mmHg 82%
    20:00 -14°C° 0 mm 3 mps 759 mmHg 84%
    21:00 -13°C° 0 mm 2 mps 758 mmHg 85%
    22:00 -14°C° 0 mm 2 mps 758 mmHg 86%
    23:00 -14°C° 0 mm 2 mps 758 mmHg 85%

    22 Noviembre, Viernes

    Tiempo Temperatura Precipitaciones Viento Presión Humedad
    00:00 -14°C° 0 mm 2 mps 758 mmHg 84%
    01:00 -15°C° 0 mm 3 mps 758 mmHg 83%
    02:00 -14°C° 0 mm 2 mps 758 mmHg 82%
    03:00 -14°C° 0 mm 2 mps 757 mmHg 81%
    04:00 -14°C° 0 mm 2 mps 757 mmHg 80%
    05:00 -14°C° 0 mm 2 mps 757 mmHg 80%
    06:00 -14°C° 0 mm 2 mps 757 mmHg 80%
    07:00 -15°C° 0 mm 3 mps 758 mmHg 79%
    08:00 -13°C° 0 mm 2 mps 758 mmHg 75%
    09:00 -12°C° 0 mm 2 mps 758 mmHg 70%
    10:00 -10°C° 0 mm 2 mps 758 mmHg 66%
    11:00 -9°C° 0 mm 2 mps 758 mmHg 63%
    12:00 -8°C° 0 mm 2 mps 759 mmHg 59%
    13:00 -8°C° 0 mm 2 mps 759 mmHg 56%
    14:00 -8°C° 0 mm 2 mps 759 mmHg 60%
    15:00 -8°C° 0 mm 2 mps 759 mmHg 65%
    16:00 -9°C° 0 mm 2 mps 759 mmHg 69%
    17:00 -9°C° 0 mm 2 mps 759 mmHg 72%
    18:00 -9°C° 0 mm 2 mps 759 mmHg 75%
    19:00 -10°C° 0 mm 2 mps 759 mmHg 79%
    20:00 -10°C° 0 mm 2 mps 759 mmHg 79%
    21:00 -10°C° 0 mm 2 mps 759 mmHg 80%
    22:00 -9°C° 0 mm 1 mps 759 mmHg 80%
    23:00 -10°C° 0 mm 1 mps 759 mmHg 79%
    Mostrar más